Погода в Гольянах

Россия / Удмуртская Республика     56°45′43″N   53°44′22″E
темп.,
°C
ветер,
м/с
пор.,
м/с
влажн.,
%
обл.,
%
осадки,
мм/ч
давл.,
гПа
погр.,
м
10 апреля, сб
сб1001:00+1с2599100 0.7 1028329
04:000ссв3899100 2.3 1029381
07:00+1св3999100 1.2 1031395
10:00+2св3899100 1.3 1031316
13:00+4всв3699100 0.0 1031338
16:00+4св26100100 0.0 1030297
19:00+4в3899100 0.1 1028223
22:00+3вюв12100100 0.1 102852
11 апреля, вс
вс1101:00+3юв24100100 0.1 102799
04:00+4ююв31294100 0.6 1027275
07:00+5ю41191100 0.4 1027306
10:00+8ю41087100 0.4 1028401
13:00+10юз4681100 0.0 1029565
16:00+8з2494100 0.9 1030165
19:00+6ссз2299100 1.0 103255
22:00+5с2498100 1.5 1033114
12 апреля, пн
пн1201:00+4с2597100 0.1 1035144
04:00+3с2693100 0.3 1036163
07:00+3ссв2687100 0.0 1037186
10:00+7св3574100 0.0 1037293
13:00+9св3564100 0.0 1038537
16:00+10всв3465100 0.0 1037570
19:00+7всв2382100 0.0 103757
22:00+5в228899 0.0 103724
13 апреля, вт
вт1301:00+4всв228944 0.0 103719
04:00+5в2287100 0.0 103734
07:00+5в2285100 0.0 103650
10:00+8вюв1280100 0.0 1035165
13:00+13ююв2369100 0.0 1034547
16:00+16ю34595 0.0 1032955
19:00+12ю227714 0.0 103114
22:00+10ю228494 0.0 103114
14 апреля, ср
ср1401:00+8юз228059 0.0 103014
04:00+6юз227269 0.0 103010
07:00+7юз226956 0.0 103053
10:00+13юз355283 0.0 1029462
13:00+16зюз354361 0.0 10281062
16:00+17зюз344026 0.0 10271442
19:00+13зюз225669 0.0 102611
22:00+11зюз116592 0.0 102610